| time (UTC) | temp F | wind direction | speed MPH | gust MPH | rain 1hr in | rain 24hr in | rain mn in | humidity % | barometer mb |
| 20260507191506 | 65 | 227 | 2.0 | 10.0 | 0.00 | 0.41 | 0.23 | 29 | 1005.4 |
| 20260507190006 | 64 | 63 | 2.0 | 13.0 | 0.00 | 0.41 | 0.23 | 32 | 1005.5 |
| 20260507184509 | 65 | 307 | 1.0 | 8.0 | 0.00 | 0.41 | 0.23 | 35 | 1005.8 |
| 20260507183008 | 64 | 53 | 1.0 | 7.0 | 0.00 | 0.41 | 0.23 | 38 | 1005.8 |
| 20260507181509 | 64 | 327 | 1.0 | 11.0 | 0.00 | 0.41 | 0.23 | 37 | 1006.2 |
| 20260507180008 | 65 | 38 | 1.0 | 7.0 | 0.00 | 0.41 | 0.23 | 33 | 1006.2 |
| 20260507174509 | 64 | 23 | 0.0 | 8.0 | 0.00 | 0.41 | 0.23 | 42 | 1006.4 |
| 20260507173025 | 64 | 19 | 3.0 | 10.0 | 0.00 | 0.41 | 0.23 | 42 | 1006.5 |
| 20260507171513 | 64 | 14 | 2.0 | 9.0 | 0.00 | 0.41 | 0.23 | 47 | 1006.5 |
| 20260507170013 | 64 | 276 | 1.0 | 7.0 | 0.00 | 0.41 | 0.23 | 53 | 1006.8 |
| 20260507164516 | 63 | 28 | 2.0 | 6.0 | 0.00 | 0.41 | 0.23 | 54 | 1006.8 |
| 20260507163010 | 61 | 179 | 1.0 | 6.0 | 0.00 | 0.41 | 0.23 | 63 | 1007.0 |
| 20260507161519 | 61 | 17 | 1.0 | 3.0 | 0.00 | 0.41 | 0.23 | 64 | 1007.2 |
| 20260507160010 | 61 | 360 | 2.0 | 6.0 | 0.00 | 0.41 | 0.23 | 60 | 1007.3 |
| 20260507154518 | 61 | 286 | 1.0 | 5.0 | 0.00 | 0.41 | 0.23 | 66 | 1007.5 |
| 20260507153013 | 61 | 313 | 2.0 | 6.0 | 0.00 | 0.41 | 0.23 | 63 | 1007.6 |
| 20260507151512 | 59 | 244 | 0.0 | 8.0 | 0.00 | 0.41 | 0.23 | 63 | 1007.8 |
| 20260507150012 | 59 | 5 | 2.0 | 8.0 | 0.00 | 0.41 | 0.23 | 61 | 1007.9 |
| 20260507144515 | 59 | 56 | 0.0 | 5.0 | 0.00 | 0.41 | 0.23 | 71 | 1007.8 |
| 20260507143013 | 57 | 9 | 2.0 | 10.0 | 0.00 | 0.41 | 0.23 | 74 | 1007.7 |
| 20260507141513 | 56 | 36 | 2.0 | 8.0 | 0.00 | 0.41 | 0.23 | 81 | 1007.9 |
| 20260507140014 | 55 | 352 | 1.0 | 4.0 | 0.00 | 0.41 | 0.23 | 85 | 1008.0 |
| 20260507134513 | 53 | 22 | 2.0 | 7.0 | 0.00 | 0.41 | 0.23 | 90 | 1008.1 |
| 20260507133012 | 52 | 29 | 0.0 | 8.0 | 0.00 | 0.41 | 0.23 | 91 | 1008.0 |
| 20260507131516 | 52 | 53 | 1.0 | 6.0 | 0.00 | 0.41 | 0.23 | 92 | 1008.2 |
| 20260507130015 | 51 | 352 | 0.0 | 2.0 | 0.00 | 0.41 | 0.23 | 93 | 1008.1 |
| 20260507124517 | 50 | 327 | 0.0 | 2.0 | 0.00 | 0.41 | 0.23 | 93 | 1008.0 |
| 20260507123014 | 50 | 25 | 0.0 | 2.0 | 0.01 | 0.41 | 0.23 | 93 | 1008.0 |
| 20260507121519 | 50 | 336 | 0.0 | 1.0 | 0.02 | 0.41 | 0.23 | 93 | 1008.7 |
| 20260507120016 | 50 | 13 | 0.0 | 1.0 | 0.04 | 0.41 | 0.23 | 93 | 1008.2 |
| 20260507114516 | 49 | 15 | 0.0 | 2.0 | 0.04 | 0.41 | 0.23 | 93 | 1008.0 |
| 20260507113017 | 49 | 22 | 0.0 | 3.0 | 0.04 | 0.40 | 0.22 | 93 | 1008.0 |
| 20260507111528 | 49 | 275 | 0.0 | 4.0 | 0.03 | 0.39 | 0.21 | 93 | 1008.1 |
| 20260507110020 | 49 | 19 | 0.0 | 2.0 | 0.02 | 0.37 | 0.19 | 93 | 1007.8 |
| 20260507104520 | 49 | 11 | 0.0 | 5.0 | 0.03 | 0.37 | 0.19 | 93 | 1007.8 |
| 20260507103016 | 49 | 17 | 1.0 | 4.0 | 0.02 | 0.36 | 0.18 | 92 | 1007.2 |
| 20260507101522 | 49 | 26 | 1.0 | 3.0 | 0.02 | 0.36 | 0.18 | 92 | 1007.6 |
| 20260507100019 | 49 | 5 | 1.0 | 4.0 | 0.03 | 0.35 | 0.17 | 92 | 1007.7 |
| 20260507094522 | 49 | 347 | 1.0 | 5.0 | 0.02 | 0.34 | 0.16 | 92 | 1007.4 |
| 20260507093022 | 50 | 14 | 3.0 | 8.0 | 0.03 | 0.34 | 0.16 | 93 | 1007.3 |
| 20260507091528 | 51 | 13 | 1.0 | 4.0 | 0.04 | 0.34 | 0.16 | 93 | 1007.0 |
| 20260507090017 | 51 | 221 | 0.0 | 1.0 | 0.05 | 0.32 | 0.14 | 93 | 1007.4 |
| 20260507084523 | 51 | 311 | 0.0 | 1.0 | 0.12 | 0.32 | 0.14 | 93 | 1007.0 |
| 20260507083020 | 51 | 352 | 0.0 | 3.0 | 0.13 | 0.31 | 0.13 | 93 | 1006.5 |
| 20260507081515 | 52 | 18 | 1.0 | 5.0 | 0.12 | 0.30 | 0.12 | 93 | 1006.9 |
| 20260507080011 | 53 | 29 | 2.0 | 11.0 | 0.09 | 0.27 | 0.09 | 93 | 1007.2 |
| 20260507074517 | 55 | 271 | 0.0 | 3.0 | 0.02 | 0.20 | 0.02 | 93 | 1007.0 |
| 20260507073018 | 55 | 170 | 0.0 | 0.0 | 0.00 | 0.18 | 0.00 | 93 | 1005.8 |
| 20260507071522 | 55 | 169 | 0.0 | 0.0 | 0.00 | 0.18 | 0.00 | 93 | 1005.7 |
| 20260507070017 | 55 | 170 | 0.0 | 1.0 | 0.00 | 0.18 | 0.00 | 93 | 1005.5 |
| 20260507064514 | 55 | 272 | 0.0 | 1.0 | 0.00 | 0.18 | 0.00 | 93 | 1005.8 |
| 20260507063016 | 55 | 286 | 0.0 | 1.0 | 0.00 | 0.18 | 0.00 | 93 | 1006.1 |
| 20260507061522 | 55 | 258 | 0.0 | 2.0 | 0.00 | 0.18 | 0.00 | 93 | 1005.8 |
| 20260507060033 | 55 | 215 | 0.0 | 2.0 | 0.00 | 0.18 | 0.00 | 93 | 1006.2 |
| 20260507054511 | 55 | 253 | 0.0 | 2.0 | 0.00 | 0.18 | 0.00 | 93 | 1006.5 |
| 20260507053016 | 55 | 259 | 0.0 | 3.0 | 0.00 | 0.18 | 0.00 | 93 | 1006.6 |
| 20260507051520 | 55 | 243 | 0.0 | 4.0 | 0.00 | 0.18 | 0.00 | 93 | 1006.7 |
| 20260507050026 | 55 | 216 | 0.0 | 2.0 | 0.00 | 0.18 | 0.00 | 93 | 1006.9 |
| 20260507044527 | 55 | 230 | 0.0 | 4.0 | 0.00 | 0.18 | 0.00 | 93 | 1007.0 |
| 20260507043014 | 55 | 211 | 1.0 | 4.0 | 0.00 | 0.18 | 0.00 | 93 | 1006.7 |
| 20260507041517 | 55 | 205 | 0.0 | 3.0 | 0.00 | 0.18 | 0.00 | 93 | 1006.6 |
| 20260507040024 | 55 | 213 | 0.0 | 3.0 | 0.00 | 0.18 | 0.00 | 93 | 1006.6 |
| 20260507034533 | 55 | 187 | 0.0 | 3.0 | 0.00 | 0.18 | 0.18 | 93 | 1006.8 |
| 20260507033009 | 55 | 205 | 1.0 | 3.0 | 0.00 | 0.18 | 0.18 | 93 | 1007.1 |
| 20260507031516 | 55 | 168 | 0.0 | 3.0 | 0.00 | 0.18 | 0.18 | 93 | 1006.9 |
| 20260507030018 | 55 | 215 | 0.0 | 3.0 | 0.00 | 0.18 | 0.18 | 93 | 1006.8 |
| 20260507024525 | 56 | 161 | 1.0 | 6.0 | 0.00 | 0.18 | 0.18 | 93 | 1006.7 |
| 20260507023027 | 56 | 180 | 0.0 | 5.0 | 0.00 | 0.18 | 0.18 | 93 | 1006.8 |
| 20260507021518 | 56 | 206 | 0.0 | 5.0 | 0.00 | 0.18 | 0.18 | 93 | 1006.9 |
| 20260507020017 | 55 | 250 | 1.0 | 8.0 | 0.00 | 0.18 | 0.18 | 93 | 1007.2 |
| 20260507014522 | 55 | 192 | 0.0 | 6.0 | 0.00 | 0.18 | 0.18 | 93 | 1007.4 |
| 20260507013004 | 55 | 218 | 1.0 | 8.0 | 0.00 | 0.18 | 0.18 | 92 | 1007.6 |
| 20260507011510 | 55 | 219 | 1.0 | 6.0 | 0.00 | 0.18 | 0.18 | 93 | 1007.7 |
| 20260507010012 | 56 | 204 | 1.0 | 10.0 | 0.00 | 0.18 | 0.18 | 93 | 1007.9 |
| 20260507004528 | 56 | 189 | 1.0 | 6.0 | 0.00 | 0.18 | 0.18 | 92 | 1007.7 |
| 20260507003027 | 56 | 294 | 1.0 | 8.0 | 0.01 | 0.18 | 0.18 | 92 | 1007.8 |
| 20260507001508 | 56 | 199 | 1.0 | 10.0 | 0.01 | 0.18 | 0.18 | 92 | 1007.7 |
| 20260507000012 | 56 | 184 | 3.0 | 9.0 | 0.02 | 0.18 | 0.18 | 92 | 1007.7 |
| 20260506234523 | 56 | 173 | 4.0 | 13.0 | 0.04 | 0.18 | 0.18 | 92 | 1007.7 |
| 20260506233022 | 56 | 136 | 0.0 | 6.0 | 0.06 | 0.17 | 0.17 | 92 | 1007.7 |
| 20260506231527 | 56 | 286 | 1.0 | 7.0 | 0.10 | 0.17 | 0.17 | 92 | 1007.7 |
| 20260506224526 | 56 | 196 | 1.0 | 8.0 | 0.10 | 0.14 | 0.14 | 92 | 1007.5 |
| 20260506223018 | 56 | 175 | 2.0 | 10.0 | 0.08 | 0.11 | 0.11 | 91 | 1007.4 |
| 20260506221522 | 57 | 210 | 2.0 | 9.0 | 0.04 | 0.07 | 0.07 | 91 | 1007.7 |
| 20260506220026 | 57 | 126 | 1.0 | 17.0 | 0.02 | 0.04 | 0.04 | 91 | 1008.2 |
| 20260506214523 | 57 | 192 | 2.0 | 11.0 | 0.02 | 0.04 | 0.04 | 90 | 1008.1 |
| 20260506213014 | 57 | 239 | 5.0 | 12.0 | 0.01 | 0.03 | 0.03 | 90 | 1008.2 |
| 20260506211527 | 58 | 188 | 3.0 | 15.0 | 0.01 | 0.03 | 0.03 | 89 | 1008.3 |
| 20260506210024 | 59 | 207 | 2.0 | 8.0 | 0.01 | 0.02 | 0.02 | 87 | 1008.5 |
| 20260506204526 | 59 | 254 | 2.0 | 16.0 | 0.02 | 0.02 | 0.02 | 86 | 1008.6 |
| 20260506203012 | 59 | 175 | 2.0 | 15.0 | 0.02 | 0.02 | 0.02 | 86 | 1008.7 |
| 20260506201518 | 59 | 180 | 4.0 | 9.0 | 0.02 | 0.02 | 0.02 | 88 | 1008.7 |
| 20260506200021 | 59 | 173 | 4.0 | 12.0 | 0.01 | 0.01 | 0.01 | 86 | 1008.9 |
| 20260506194524 | 60 | 278 | 2.0 | 14.0 | 0.00 | 0.00 | 0.00 | 83 | 1009.3 |
| 20260506193010 | 61 | 248 | 3.0 | 12.0 | 0.00 | 0.00 | 0.00 | 79 | 1009.1 |